Theta_e
357 359 362 361 361 363 365 365 362 352 356 357 356 360 359 359 360 360 363 363 362 360 358 357 353 353 354 355 357 353 353 352 349 349 348 349 348 347 349 348 346 340 339
363 361 359 361 363 363 361 356 353 361 362 363 363 364 364 363 361 361 363 363 363 360 359 356 353 354 353 355 353 350 346 341 345 347 348 350 350 349 349 347 340 340 349
357 358 357 358 360 359 356 355 354 355 357 360 363 365 363 363 364 364 363 363 362 361 360 355 354 354 353 352 348 345 342 345 346 349 348 348 347 347 345 341 348 349 346
336 337 339 339 339 339 340 341 343 347 349 349 347 351 359 363 360 359 362 362 363 361 359 356 355 355 353 349 346 341 341 345 347 347 346 344 344 345 343 344 343 344 343
337 339 341 341 341 341 341 341 341 340 339 339 347 350 347 349 358 360 359 359 361 361 359 358 355 352 349 346 343 339 342 345 345 344 341 343 343 343 342 341 339 339 336
337 338 337 336 336 335 335 335 335 336 338 339 340 340 348 350 344 348 354 358 359 358 356 352 350 348 346 344 339 339 340 343 343 342 340 340 339 340 340 339 337 335 333
335 333 332 332 333 333 333 331 331 332 332 334 335 339 340 345 347 344 349 355 355 357 353 350 348 346 344 339 338 339 339 341 342 342 342 340 338 337 339 336 334 329 329
330 330 331 330 329 328 328 329 330 331 331 333 332 332 338 339 340 345 347 352 355 353 352 350 347 344 340 339 340 340 340 340 340 340 340 339 338 336 334 332 330 327 327
328 327 326 326 325 325 325 325 327 329 330 330 330 332 335 338 335 340 347 353 353 350 349 349 348 344 341 338 338 336 336 335 335 336 337 334 332 329 328 327 325 326 330
325 325 325 325 324 323 321 322 324 327 329 329 331 331 331 335 336 339 346 348 348 348 348 347 346 344 341 337 336 334 333 335 331 331 327 327 328 330 329 329 328 328 330
325 325 324 323 321 320 318 321 322 324 327 329 331 333 334 337 341 342 344 340 343 344 345 345 345 343 341 339 338 334 334 333 330 331 329 327 328 326 325 324 323 325 328
323 323 322 321 320 319 317 320 321 321 323 330 333 334 333 334 337 341 341 341 342 339 335 340 342 340 338 338 338 332 328 325 321 320 321 324 326 323 320 317 317 319 322
322 321 320 320 319 317 315 316 316 320 322 327 326 326 325 326 329 332 338 337 335 335 331 330 324 332 332 334 332 327 326 325 321 322 323 324 325 322 318 318 318 319 319
320 319 319 319 317 315 315 315 312 316 317 318 318 319 319 320 323 326 328 329 332 328 326 325 323 323 322 327 329 326 327 328 327 328 328 327 326 320 319 320 320 320 320
318 318 318 318 317 316 314 315 314 314 316 313 313 315 314 314 317 320 322 322 320 320 319 320 319 319 320 320 317 320 322 322 324 326 324 321 320 320 320 318 319 321 321
317 316 317 317 316 315 315 314 314 315 316 316 316 317 318 318 318 319 318 318 318 318 318 319 318 318 321 318 317 319 319 320 320 320 320 319 319 320 318 318 317 319 319
316 315 315 315 314 314 314 313 313 314 313 313 314 315 318 318 319 319 318 318 319 319 320 320 321 318 319 317 317 317 318 319 320 320 319 319 318 319 318 318 317 316 317
316 316 315 315 314 314 314 314 314 314 314 314 313 314 315 316 316 317 317 318 317 318 319 319 320 320 321 322 319 318 318 317 317 317 318 318 318 318 315 316 317 316 316
319 316 316 315 314 314 314 314 314 314 314 314 314 314 315 315 315 316 316 316 316 318 319 318 319 319 319 319 319 318 317 316 317 317 316 316 317 317 317 316 316 316 316
320 319 319 317 314 314 314 313 313 313 312 313 313 315 315 315 316 315 316 317 318 319 320 320 317 315 317 319 319 319 318 315 316 317 316 315 314 315 315 315 315 314 314
321 321 320 318 316 315 314 314 314 314 314 314 313 312 312 314 315 316 316 317 318 319 320 320 320 320 320 318 319 319 319 316 315 315 314 314 314 314 314 313 313 313 314
326 324 321 320 319 318 318 316 317 317 318 318 318 317 317 316 317 317 317 318 318 318 319 319 319 320 320 320 320 320 319 319 318 316 316 316 314 313 313 313 313 313 313
325 325 324 324 322 321 321 320 319 320 320 320 320 320 320 319 320 320 320 320 319 319 319 319 319 320 320 320 320 319 318 317 316 316 316 315 315 315 315 315 315 315 315
326 324 325 324 324 321 320 320 319 319 320 320 320 320 320 320 320 320 320 320 320 319 319 319 320 319 320 319 319 318 317 317 317 317 317 317 316 316 316 316 314 310 310
321 317 321 322 321 319 319 319 319 320 319 318 319 320 320 321 320 320 320 320 320 320 320 320 319 319 319 318 318 318 318 318 318 318 318 317 316 314 312 310 310 311 313
319 318 320 321 321 319 320 320 319 320 320 320 319 319 319 318 319 320 319 319 319 319 319 319 319 319 319 319 319 318 318 318 318 317 313 309 306 303 301 301 302 303 304
Wind_Speed
24 24 23 26 27 29 27 25 25 24 26 29 26 26 26 26 27 27 27 30 34 35 35 33 33 29 24 23 18 18 16 14 7 21 19 23 26 26 25 26 24 19 19
12 18 22 22 22 20 20 21 19 18 19 21 23 25 27 29 28 26 28 28 35 37 36 31 32 29 23 18 14 14 15 16 16 18 19 21 21 23 24 21 18 17 14
14 9 7 5 5 4 8 12 15 17 19 20 20 24 27 27 28 30 30 33 33 37 37 33 29 26 22 16 15 15 13 14 16 16 15 16 18 20 20 11 8 12 12
16 14 12 11 13 14 15 17 19 20 23 25 26 27 29 29 30 31 32 33 35 35 35 33 28 27 22 16 15 12 10 12 13 14 8 3 1 11 21 20 16 13 11
13 13 15 15 16 16 17 18 21 22 24 25 26 29 29 29 29 30 32 32 35 33 31 29 23 20 16 14 12 9 8 9 12 9 3 4 6 6 11 12 13 14 10
13 14 15 17 21 23 25 28 29 30 29 28 30 31 30 31 31 31 30 32 32 31 28 21 18 17 15 11 9 8 7 6 9 4 2 4 5 9 11 16 17 9 3
14 16 18 20 21 22 24 26 27 28 30 32 33 31 31 30 29 30 28 28 32 30 28 24 21 19 14 11 10 11 9 7 7 8 9 8 10 11 16 16 14 7 6
15 15 15 18 20 23 24 24 25 26 27 28 31 33 32 31 30 28 27 28 29 29 30 26 26 22 18 15 13 11 8 10 9 9 10 9 6 10 13 11 11 11 12
15 14 16 17 21 23 23 24 25 26 28 30 29 29 30 30 30 27 25 27 29 27 28 27 26 25 21 19 19 16 12 10 7 6 8 8 11 10 8 11 11 12 4
13 13 14 15 19 19 22 24 24 23 27 28 28 26 27 28 26 24 24 25 25 27 26 25 27 25 26 23 21 19 18 17 15 15 14 14 12 11 8 6 11 8 7
8 8 11 14 19 22 23 21 23 23 26 25 25 24 23 21 17 17 15 15 18 23 28 27 28 27 28 27 23 22 22 21 16 17 15 15 14 12 11 10 8 5 11
12 13 13 13 17 20 21 22 22 22 22 22 17 16 12 10 8 8 9 11 10 16 17 25 30 30 29 27 28 21 19 18 18 17 17 16 16 14 11 9 9 9 9
10 10 11 11 13 16 21 22 24 25 20 17 14 11 11 10 8 4 6 9 2 12 12 16 18 26 25 30 26 23 23 21 22 21 19 18 14 13 14 15 15 14 15
9 10 11 13 13 17 23 23 23 24 18 16 16 14 15 15 14 8 6 6 7 12 14 15 12 10 16 21 23 24 19 18 21 19 16 12 17 14 13 11 11 12 10
9 9 10 10 10 11 18 23 22 25 20 17 19 21 19 22 22 12 10 12 18 22 27 17 17 18 19 13 11 18 14 15 18 16 22 22 19 16 13 10 9 10 8
9 9 8 9 9 9 10 13 17 17 19 22 21 26 27 29 26 24 23 21 20 19 21 18 15 16 18 18 16 14 16 18 19 20 18 18 17 18 12 9 9 10 10
10 8 9 10 10 11 10 10 10 13 18 19 20 22 20 18 18 21 27 17 13 13 18 14 11 11 14 12 8 5 13 11 13 15 15 13 13 14 14 12 10 9 12
10 8 8 9 8 7 8 9 10 11 13 15 16 17 19 20 16 16 19 19 21 24 23 22 20 19 14 5 12 16 15 10 9 11 10 10 12 16 11 12 14 11 11
15 12 8 7 8 7 7 5 7 7 9 11 10 9 13 16 16 15 15 18 16 19 19 20 21 20 18 11 3 6 6 6 9 9 7 6 8 9 7 7 8 10 14
19 15 12 10 8 7 6 4 3 1 3 5 4 4 6 9 11 10 10 10 8 10 9 9 9 12 7 2 3 3 3 4 4 6 7 5 4 5 6 4 5 9 12
16 18 16 15 13 12 11 10 8 6 4 4 4 5 6 8 8 8 6 4 5 7 2 1 1 4 9 15 17 11 9 6 7 6 7 9 8 8 7 6 6 5 7
13 15 18 20 20 19 19 19 17 15 15 13 12 10 10 12 15 15 13 11 8 9 10 11 9 6 13 11 11 13 15 14 15 16 14 13 12 12 11 11 11 11 10
15 13 15 16 18 18 18 21 23 24 23 20 17 16 15 16 17 16 14 14 13 8 7 6 6 7 12 15 15 14 15 13 9 8 10 11 10 9 9 9 8 9 11
16 14 15 15 15 13 17 19 18 18 21 19 19 19 19 18 17 18 16 13 10 7 12 12 8 6 11 10 14 10 9 9 7 7 7 9 10 9 10 11 13 15 16
17 16 13 13 13 16 13 11 12 15 13 13 14 11 12 15 11 9 9 7 5 5 7 6 8 9 9 10 10 9 9 8 11 10 8 7 7 10 13 16 17 16 15
14 13 14 14 17 16 10 10 11 11 12 16 17 12 15 14 11 12 11 11 9 9 8 9 10 9 9 10 11 10 9 9 8 7 6 7 10 13 14 14 13 13 14
Wind_Direction
206 209 218 232 239 244 252 258 272 277 268 268 278 276 277 279 281 284 267 251 248 250 251 250 245 253 257 251 240 253 263 262 251 279 274 272 263 259 250 236 236 247 241
195 218 225 236 244 254 272 284 281 290 291 288 284 281 283 283 285 282 272 259 250 248 250 246 248 253 247 228 239 258 265 276 260 263 275 270 261 252 239 238 233 251 246
87 92 84 57 21 330 321 316 312 311 305 301 299 293 288 284 286 280 276 269 256 252 248 243 247 244 232 223 240 262 274 285 282 263 269 277 263 241 232 219 223 171 128
43 36 17 5 344 333 323 315 312 310 309 310 307 301 301 294 287 286 279 276 265 255 248 246 245 235 227 222 243 261 287 277 266 243 250 223 43 262 192 146 129 138 138
26 17 2 350 339 334 330 326 322 320 315 309 306 301 300 293 290 285 281 277 269 255 249 236 227 216 220 233 244 257 255 252 251 248 214 173 150 120 130 153 138 131 116
44 30 7 349 338 333 328 324 318 314 311 309 307 301 297 290 286 283 282 280 268 253 226 205 203 211 216 228 235 221 227 235 218 204 181 127 153 157 148 154 140 129 118
31 9 356 345 338 333 328 323 317 314 310 305 299 297 296 294 289 288 286 275 264 239 207 200 198 203 208 204 202 211 217 200 198 200 199 194 174 176 159 159 155 153 111
31 15 2 350 341 335 328 323 322 319 312 304 301 296 292 293 292 287 286 271 253 236 211 205 199 190 185 180 171 175 190 198 212 225 231 217 191 164 164 170 161 133 121
30 13 358 357 347 342 339 329 323 315 310 308 301 297 292 293 292 292 286 263 239 231 221 207 199 185 176 173 167 161 162 156 156 155 166 164 148 146 153 154 142 141 97
28 18 3 353 348 345 334 330 326 324 312 304 301 296 293 299 291 288 283 259 231 222 219 217 194 186 176 174 168 165 162 160 152 146 138 138 137 127 128 139 146 126 116
34 23 17 10 2 354 349 348 341 330 321 309 300 303 302 296 289 291 274 238 233 218 217 200 190 187 182 183 185 175 171 163 159 153 149 145 138 125 110 107 106 129 143
32 23 17 17 8 0 2 360 358 346 335 321 313 306 304 313 317 298 232 234 249 220 204 193 188 178 179 182 188 178 171 165 163 155 145 141 142 132 111 104 107 115 104
32 24 20 23 7 7 13 12 6 8 1 1 17 16 15 20 30 17 269 252 230 190 190 173 163 174 171 175 174 176 167 160 153 150 150 154 152 139 128 120 113 110 109
42 36 32 33 29 26 33 30 20 19 13 22 22 16 22 31 33 44 66 92 130 125 131 127 112 94 93 130 147 164 168 172 167 165 172 187 172 161 155 151 144 143 135
63 48 45 52 55 57 48 49 51 51 52 54 52 58 52 47 48 43 73 96 114 119 114 115 117 112 108 107 94 115 136 165 190 198 161 154 165 173 174 163 163 172 165
99 80 76 74 66 70 73 68 61 61 66 67 66 72 77 75 73 64 76 87 101 113 106 107 110 125 118 105 96 78 102 114 126 143 156 162 163 170 165 163 160 185 183
132 118 103 94 87 80 66 52 42 49 52 60 70 69 71 79 76 67 73 96 76 96 72 75 86 122 115 112 108 144 141 147 159 159 168 171 171 175 174 182 191 174 172
164 148 130 116 106 101 86 74 58 51 44 35 49 66 67 65 67 66 72 76 69 68 62 64 57 63 68 110 183 166 152 150 152 150 151 162 168 171 183 194 205 208 207
189 186 170 156 146 128 117 103 83 60 56 41 31 52 71 67 58 61 66 59 51 45 51 65 80 74 68 79 78 126 149 163 163 154 152 147 176 186 186 204 222 229 220
202 200 207 196 185 184 183 189 158 109 61 74 17 17 4 9 32 48 49 44 34 25 48 69 109 95 108 275 149 145 197 188 168 186 190 192 182 202 196 183 201 207 208
192 204 221 213 212 216 215 221 238 252 260 266 274 302 311 319 329 336 324 308 323 322 258 245 284 242 222 225 231 211 225 194 217 202 195 187 188 201 212 220 218 218 223
218 215 220 225 228 230 241 243 250 258 263 264 275 277 277 280 293 299 300 296 292 294 292 284 279 285 212 227 221 223 235 238 239 231 217 218 224 224 228 233 244 248 240
226 241 239 237 233 235 245 250 250 254 261 267 272 283 285 283 289 292 297 308 308 284 261 279 295 244 236 230 253 231 225 189 197 183 198 206 207 214 222 231 242 253 264
246 240 239 244 245 251 245 246 247 256 259 268 276 279 280 278 283 289 298 305 312 255 250 267 278 202 187 200 199 214 192 185 191 201 209 213 217 219 240 256 267 275 278
234 232 237 221 225 233 222 242 249 247 250 261 270 287 301 277 269 274 287 268 264 253 259 246 206 216 218 209 211 213 211 240 237 231 241 239 258 279 284 282 282 281 277
236 232 225 220 214 231 247 252 254 269 256 252 249 244 246 273 270 270 276 264 242 252 251 235 242 244 230 233 236 246 234 223 227 234 258 293 304 298 286 281 280 280 281